Onweer radar Meer informatie blitzortung!


Regen radar Meer informatie rain snow radar


Bezoek onze andere website:

Template documentation
and downloads

And another site



15 daagse weersverwachting Alta (NO)

  • Overzicht
  • Per uur
  • 15 dagen
  • Extra
  • Vergelijk
  • Kaarten
  • Dagkaart
  • Meer »
  • Info
  • Statistieken
  • Directe link
    Temp 6h Neerslag Wind  
 02:10     23:04    Daglengte: 20:54 Morgen
02:00
6.3 mm
3
08:00
3.0 mm
4
14:00
1.1 mm
4
20:00
 
1
 02:17     22:56    Daglengte: 20:39 Maandag 02 Aug
02:00
 
2
08:00
 
2
14:00
12°
 
4
20:00
11°
 
2
 02:24     22:48    Daglengte: 20:24 Dinsdag 03 Aug
02:00
4.2 mm
1
08:00
10°
 
2
14:00
13°
 
2
20:00
11°
 
3
Locatie info
Region: Finnmark
Latitude: 69.9684°N
Longitude: 23.2708°E
65 masl
Postcode: 9511
Temp/Neerslag /Baro Onweer/Dauwpunt
    Temp Baro 1h Neerslag Dauwpunt Wind UV Bewolking  
 02:10     23:04    Daglengte: 20:54 Morgen
00:00
Voelt als: 5.7°
998.3 hPa 4.0 mm
49%
6.4°
3
Windvlaag: -2.6 m/s
79%
01:00
Voelt als: 5.4°
998.4 hPa 1.3 mm
82%
6.1°
3
Windvlaag: -2.4 m/s
81%
02:00
Voelt als: 5.2°
998.4 hPa 1.1 mm
82%
5.7°
3
Windvlaag: -2.6 m/s
73%
03:00
Voelt als: 5.1°
998.2 hPa
82%
5.5°
3
Windvlaag: -2.8 m/s
72%
04:00
Voelt als: 5.0°
998.2 hPa 1.0 mm
82%
5.2°
3
Windvlaag: -3 m/s
70%
05:00
Voelt als: 5.3°
998.1 hPa 1.0 mm
82%
5.0°
3
Windvlaag: -3 m/s
73%
06:00
Voelt als: 5.2°
998.0 hPa 0.9 mm
82%
4.8°
3
Windvlaag: -3.4 m/s
69%
07:00
Voelt als: 5.4°
997.9 hPa
79%
4.9°
3
Windvlaag: -3.5 m/s
75%
08:00
Voelt als: 5.6°
997.9 hPa
80%
5.3°
4
Windvlaag: -3.6 m/s
75%
09:00
Voelt als: 5.6°
997.9 hPa
82%
5.4°
4
Windvlaag: -3.6 m/s
74%
10:00
Voelt als: 5.6°
998.0 hPa 1.1 mm
81%
5.2°
4
Windvlaag: -3.8 m/s
70%
11:00
Voelt als: 5.7°
998.0 hPa
79%
5.0°
4
Windvlaag: -4 m/s
61%
12:00
Voelt als: 6.0°
998.1 hPa
74%
5.0°
4
Windvlaag: -4.3 m/s
65%
13:00
Voelt als: 6.2°
998.3 hPa
72%
5.1°
4
Windvlaag: -4.6 m/s
74%
14:00
Voelt als: 6.6°
998.5 hPa
76%
5.2°
4
Windvlaag: -4.5 m/s
72%
15:00
Voelt als: 6.8°
998.6 hPa
68%
5.2°
4
Windvlaag: -4.6 m/s
58%
16:00
Voelt als: 6.8°
998.5 hPa
72%
5.1°
4
Windvlaag: -4.6 m/s
45%
17:00
Voelt als: 7.5°
998.5 hPa
68%
5.0°
3
Windvlaag: -4.4 m/s
29%
18:00
Voelt als: 8.2°
998.5 hPa
64%
5.1°
2
Windvlaag: -3.3 m/s
31%
19:00
Voelt als: 8.6°
998.5 hPa
16%
5.2°
2
Windvlaag: -1.9 m/s
16%
20:00
Voelt als: 8.6°
998.7 hPa
14%
5.0°
1
Windvlaag: 0.6 m/s
18%
21:00
Voelt als: 7.9°
998.8 hPa
14%
4.7°
2
Windvlaag: 1.8 m/s
19%
22:00
Voelt als: 6.9°
999.0 hPa
14%
4.1°
2
Windvlaag: 2.6 m/s
18%
23:00
Voelt als: 6.3°
999.0 hPa
14%
3.7°
2
Windvlaag: 3 m/s
18%
 02:17     22:56    Daglengte: 20:39 Maandag 02 Aug
00:00
Voelt als: 6.0°
999.1 hPa
14%
3.7°
1
Windvlaag: 3 m/s
20%
01:00
Voelt als: 5.1°
999.1 hPa
14%
3.3°
2
Windvlaag: 3.3 m/s
14%
02:00
Voelt als: 3.9°
999.1 hPa
14%
3.5°
2
Windvlaag: 3.7 m/s
13%
03:00
Voelt als: 3.3°
999.1 hPa
14%
3.5°
2
Windvlaag: 3.6 m/s
16%
04:00
Voelt als: 3.2°
999.0 hPa
14%
3.4°
2
Windvlaag: 3.6 m/s
10%
05:00
Voelt als: 3.8°
999.0 hPa
14%
3.6°
2
Windvlaag: 3.2 m/s
9%
06:00
Voelt als: 5.9°
998.9 hPa
14%
4.5°
2
Windvlaag: 3 m/s
9%
07:00
Voelt als: 7.6°
998.8 hPa
14%
5.5°
2
Windvlaag: 3.2 m/s
9%
08:00
Voelt als: 9.0°
998.8 hPa
14%
6.2°
2
Windvlaag: 2.7 m/s
19%
09:00
10°
998.7 hPa
14%
6.0°
2
Windvlaag: 0.8 m/s
18%
10:00
11°
998.8 hPa
14%
4.8°
2
Windvlaag: -0.7 m/s
12%
11:00
11°
998.8 hPa
16%
4.5°
3
Windvlaag: -0.8 m/s
37%
12:00
12°
999.1 hPa
61%
4.0°
3
Windvlaag: -0.9 m/s
21%
13:00
11°
999.5 hPa
72%
5.5°
3
Windvlaag: -1.7 m/s
19%
14:00
12°
999.9 hPa
79%
4.3°
4
Windvlaag: -3.2 m/s
19%
15:00
12°
1000.2 hPa
82%
4.9°
4
Windvlaag: -3.4 m/s
13%
16:00
11°
1000.5 hPa
82%
7.0°
4
Windvlaag: -3.2 m/s
15%
17:00
12°
1001.4 hPa
97%
6.2°
3
Windvlaag: -2.5 m/s
39%
18:00
11°
1001.9 hPa
81%
6.0°
3
Windvlaag: -1.3 m/s
27%
19:00
11°
1002.3 hPa
27%
6.3°
2
Windvlaag: 1.1 m/s
18%
20:00
11°
1002.7 hPa
22%
6.3°
2
Windvlaag: 2.4 m/s
30%
21:00
10°
1003.0 hPa 2.0 mm
21%
5.9°
1
Windvlaag: 1.2 m/s
52%
22:00
Voelt als: 8.9°
1003.5 hPa 2.2 mm
21%
6.0°
1
Windvlaag: -1.1 m/s
30%
23:00
Voelt als: 8.2°
1003.9 hPa
21%
5.5°
1
Windvlaag: -2.1 m/s
32%
 02:24     22:48    Daglengte: 20:24 Dinsdag 03 Aug
00:00
Voelt als: 7.0°
1004.3 hPa
21%
4.6°
1
Windvlaag: -1.6 m/s
17%
01:00
Voelt als: 5.9°
1004.8 hPa
21%
3.8°
1
Windvlaag: -1.2 m/s
13%
02:00
Voelt als: 5.2°
1005.3 hPa
21%
3.6°
1
Windvlaag: -0.5 m/s
17%
03:00
Voelt als: 5.3°
1005.7 hPa
21%
3.5°
2
Windvlaag: 1.7 m/s
24%
04:00
Voelt als: 4.6°
1006.0 hPa
21%
3.5°
2
Windvlaag: 2 m/s
16%
05:00
Voelt als: 4.9°
1006.1 hPa
21%
3.4°
2
Windvlaag: 2.3 m/s
10%
06:00
Voelt als: 6.2°
1006.1 hPa
21%
3.9°
2
Windvlaag: 2.7 m/s
13%
07:00
Voelt als: 7.5°
1006.2 hPa
21%
3.9°
2
Windvlaag: 2.9 m/s
11%
08:00
10°
Voelt als: 9.0°
1006.1 hPa
22%
4.4°
2
Windvlaag: 3 m/s
12%
09:00
10°
1006.1 hPa
21%
4.1°
1
Windvlaag: 3 m/s
11%
10:00
11°
1006.1 hPa
23%
4.1°
1
Windvlaag: 2.9 m/s
16%
11:00
12°
1006.0 hPa
23%
3.9°
1
Windvlaag: 0.9 m/s
14%
12:00
12°
1006.1 hPa
24%
3.7°
1
Windvlaag: -0.2 m/s
18%
13:00
12°
1006.2 hPa
23%
4.2°
2
Windvlaag: 2.1 m/s
61%
14:00
13°
1006.2 hPa
21%
4.5°
2
Windvlaag: 2.5 m/s
47%
15:00
13°
1006.8 hPa
22%
4.2°
3
Windvlaag: 3.1 m/s
68%
16:00
13°
1006.9 hPa
21%
4.1°
3
Windvlaag: 3.8 m/s
67%
17:00
12°
1007.1 hPa
27%
3.7°
3
Windvlaag: 4.6 m/s
90%
18:00
12°
1007.3 hPa
22%
3.5°
3
Windvlaag: 4.8 m/s
96%
19:00
12°
1007.3 hPa
22%
3.6°
3
Windvlaag: 4.9 m/s
97%
20:00
11°
1007.4 hPa
22%
4.5°
3
Windvlaag: 5.5 m/s
94%
21:00
11°
1006.1 hPa 5.5 mm
100%
5.7°
4
Windvlaag: 5.4 m/s
80%
22:00
11°
1006.3 hPa 5.5 mm
100%
5.5°
4
Windvlaag: 5.9 m/s
91%
23:00
10°
Voelt als: 7.6°
1006.7 hPa 5.5 mm
100%
5.8°
4
Windvlaag: 5.8 m/s
99%
Temp/Neerslag /Baro Onweer/Dauwpunt
    Temp Baro Neerslag Dauwpunt Wind Bewolking  
 02:10     23:04    Daglengte: 20:54 Morgen
02:00
Voelt als: 5.2°
998.4 hPa 6.3 mm 5.7°
3
73%
05:00
Voelt als: 5.3°
998.1 hPa 2.0 mm 5.0°
3
73%
08:00
Voelt als: 5.6°
997.9 hPa 0.9 mm 5.3°
4
75%
11:00
Voelt als: 5.7°
998.0 hPa 1.1 mm 5.0°
4
61%
14:00
Voelt als: 6.6°
998.5 hPa   5.2°
4
72%
17:00
Voelt als: 7.5°
998.5 hPa   5.0°
3
29%
20:00
Voelt als: 8.6°
998.7 hPa   5.0°
1
18%
23:00
Voelt als: 6.3°
999.0 hPa   3.7°
2
18%
 02:17     22:56    Daglengte: 20:39 Maandag 02 Aug
02:00
Voelt als: 3.9°
999.1 hPa   3.5°
2
13%
05:00
Voelt als: 3.8°
999.0 hPa   3.6°
2
9%
08:00
Voelt als: 9.0°
998.8 hPa   6.2°
2
19%
11:00
11°
998.8 hPa   4.5°
3
37%
14:00
12°
999.9 hPa   4.3°
4
19%
17:00
12°
1001.4 hPa   6.2°
3
39%
20:00
11°
1002.7 hPa   6.3°
2
30%
23:00
Voelt als: 8.2°
1003.9 hPa 4.2 mm 5.5°
1
32%
 02:24     22:48    Daglengte: 20:24 Dinsdag 03 Aug
02:00
Voelt als: 5.2°
1005.3 hPa   3.6°
1
17%
05:00
Voelt als: 4.9°
1006.1 hPa   3.4°
2
10%
08:00
10°
Voelt als: 9.0°
1006.1 hPa   4.4°
2
12%
11:00
12°
1006.0 hPa   3.9°
1
14%
14:00
13°
1006.2 hPa   4.5°
2
47%
17:00
12°
1007.1 hPa   3.7°
3
90%
20:00
11°
1007.4 hPa   4.5°
3
94%
23:00
10°
Voelt als: 7.6°
1006.7 hPa 16.5 mm 5.8°
4
99%
 02:30     22:41    Daglengte: 20:11 Woensdag 04 Aug
02:00
Voelt als: 5.6°
1006.8 hPa 16.8 mm 6.8°
5
100%
05:00
Voelt als: 7.6°
1008.7 hPa 9.9 mm 5.3°
2
1%
08:00
Voelt als: 6.6°
1008.9 hPa 10.1 mm 4.8°
4
1%
11:00
10°
Voelt als: 7.8°
1008.5 hPa 10.2 mm 4.2°
4
1%
14:00
10°
Voelt als: 8.2°
1009.0 hPa 10.2 mm 5.1°
3
1%
17:00
Voelt als: 8.4°
1008.8 hPa 10.8 mm 6.1°
1
1%
20:00
Voelt als: 8.4°
1008.8 hPa 12.7 mm 7.0°
0
1%
23:00
Voelt als: 7.5°
1009.3 hPa 14.0 mm 7.0°
2
1%
 02:37     22:34    Daglengte: 19:57 Donderdag 05 Aug
02:00
Voelt als: 7.1°
1008.9 hPa 14.5 mm 6.4°
3
1%
05:00
Voelt als: 7.2°
1009.4 hPa 15.4 mm 6.9°
3
1%
08:00
Voelt als: 7.0°
1010.3 hPa 16.6 mm 6.5°
4
1%
11:00
Voelt als: 7.6°
1011.1 hPa 17.5 mm 7.0°
3
1%
14:00
10°
Voelt als: 8.3°
1012.3 hPa 17.9 mm 6.6°
3
1%
17:00
11°
1012.8 hPa 17.9 mm 6.8°
2
1%
20:00
11°
1014.0 hPa 17.9 mm 6.7°
2
1%
23:00
Voelt als: 8.6°
1015.6 hPa 17.9 mm 6.1°
1
0%
 02:43     22:27    Daglengte: 19:44 Vrijdag 06 Aug
02:00
1016.5 hPa 17.9 mm 6.1°
1
1%
05:00
10°
1017.1 hPa 17.9 mm 6.7°
1
1%
08:00
11°
1017.1 hPa 17.9 mm 6.9°
1
1%
11:00
13°
1016.7 hPa 17.9 mm 7.4°
1
0%
14:00
14°
1015.9 hPa 17.9 mm 7.9°
1
0%
17:00
15°
1015.6 hPa 17.9 mm 8.6°
1
1%
20:00
15°
1015.3 hPa 17.9 mm 9.0°
1
1%
23:00
13°
1015.9 hPa 17.9 mm 8.1°
2
1%
 02:49     22:21    Daglengte: 19:32 Zaterdag 07 Aug
02:00
11°
1016.5 hPa 18.2 mm 8.9°
4
1%
05:00
11°
1016.8 hPa 18.4 mm 9.2°
4
1%
08:00
14°
1016.8 hPa 18.4 mm 10.4°
2
0%
11:00
16°
1016.6 hPa 18.4 mm 10.5°
2
0%
14:00
17°
1016.9 hPa 18.4 mm 11.3°
2
0%
17:00
16°
1017.6 hPa 18.5 mm 10.7°
1
0%
20:00
16°
1018.5 hPa 18.5 mm 10.3°
1
1%
23:00
15°
1020.0 hPa   9.2°
4
0%
 02:55     22:15    Daglengte: 19:20 Zondag 08 Aug
02:00
13°
1021.1 hPa 37.1 mm 8.2°
5
0%
08:00
15°
1022.2 hPa 37.1 mm 9.5°
5
0%
14:00
17°
1021.5 hPa 37.1 mm 9.3°
6
0%
20:00
16°
1021.3 hPa 37.1 mm 9.3°
5
1%
 03:00     22:08    Daglengte: 19:08 Maandag 09 Aug
02:00
12°
1021.2 hPa 37.1 mm 7.8°
2
1%
08:00
14°
1019.5 hPa 37.1 mm 8.4°
5
1%
14:00
13°
1018.6 hPa 37.4 mm 9.3°
6
1%
20:00
12°
1017.6 hPa 44.5 mm 11.0°
4
1%
 03:06     22:02    Daglengte: 18:56 Dinsdag 10 Aug
02:00
12°
1017.8 hPa 51.0 mm 11.4°
3
1%
08:00
13°
1018.3 hPa 55.1 mm 11.8°
6
1%
14:00
16°
1018.1 hPa 55.4 mm 12.7°
7
1%
20:00
17°
1015.9 hPa 0.9 mm 12.7°
1
67%
 03:11     21:57    Daglengte: 18:46 Woensdag 11 Aug
02:00
12°
1016.5 hPa 0.3 mm 10.6°
1
65%
08:00
15°
1016.3 hPa 0.7 mm 11.2°
1
61%
14:00
18°
1016.1 hPa 0.3 mm 11.5°
2
61%
20:00
16°
1016.2 hPa 0.3 mm 11.8°
1
58%
 03:17     21:51    Daglengte: 18:34 Donderdag 12 Aug
02:00
12°
1016.6 hPa   10.0°
2
53%
08:00
15°
1016.3 hPa 0.1 mm 10.6°
2
65%
14:00
18°
1016.2 hPa 0.7 mm 10.9°
1
70%
20:00
15°
1016.6 hPa 0.9 mm 11.1°
1
68%
 03:22     21:45    Daglengte: 18:23 Vrijdag 13 Aug
02:00
11°
1017.0 hPa 0.6 mm 9.4°
1
65%
08:00
14°
1017.0 hPa 0.7 mm 10.1°
1
67%
14:00
17°
1017.0 hPa 0.9 mm 10.1°
1
76%
20:00
15°
1016.7 hPa 0.3 mm 10.5°
1
72%
 03:27     21:39    Daglengte: 18:12 Zaterdag 14 Aug
02:00
11°
1016.2 hPa 0.4 mm 9.0°
2
60%
08:00
13°
1014.7 hPa 0.3 mm 10.2°
2
67%
14:00
16°
1013.5 hPa 0.9 mm 10.9°
2
73%
20:00
14°
1012.9 hPa 1.4 mm 10.8°
1
74%
 03:32     21:34    Daglengte: 18:02 Zondag 15 Aug
02:00
11°
1012.9 hPa 0.5 mm 9.3°
1
71%
08:00
13°
1012.3 hPa 0.4 mm 9.7°
1
69%
14:00
16°
1011.7 hPa 0.4 mm 10.2°
2
79%
20:00
14°
1011.1 hPa 0.5 mm 10.3°
1
80%
  CAPE Lifted Index Hail Supercell Tornado SRH 3km CL BTM PRES CL TOP PRES Swiss DWD icon SMHI TS
 02:10     23:04    Daglengte: 20:54 Morgen
00:00 3 J/kg 8.7 K 0 % 0 % 0 % 0 m²/s² 0 0 9.03 61
01:00 2 J/kg 9.1 K 0 % 0 % 0 % 0 m²/s² 0 0 9.43 61
02:00 3 J/kg 9.5 K 0 % 0 % 0 % 0 m²/s² 0 0 9.77 61
03:00 6 J/kg 9.8 K 0 % 0 % 0 % 0 m²/s² 0 0 10.13 61
04:00 6 J/kg 10.2 K 0 % 0 % 0 % 0 m²/s² 0 0 10.62 61
05:00 7 J/kg 10.3 K 0 % 0 % 0 % 0 m²/s² 0 0 10.66 61
06:00 9 J/kg 10.4 K 0 % 0 % 0 % 0 m²/s² 0 0 10.88 61
07:00 6 J/kg 10.4 K 0 % 0 % 0 % 0 m²/s² 0 0 11.06 3
08:00 4 J/kg 10.2 K 0 % 0 % 0 % 0 m²/s² 0 0 10.95 3
09:00 3 J/kg 10.2 K 0 % 0 % 0 % 0 m²/s² 0 0 11.04 3
10:00 2 J/kg 9.9 K 0 % 0 % 0 % 0 m²/s² 0 0 10.56 61
11:00 2 J/kg 9.7 K 0 % 0 % 0 % 0 m²/s² 0 0 10.36 3
12:00 3 J/kg 9.6 K 0 % 0 % 0 % 0 m²/s² 0 0 10.26 3
13:00 3 J/kg 9.3 K 0 % 0 % 0 % 0 m²/s² 0 0 10.02 3
14:00 6 J/kg 9.1 K 0 % 0 % 0 % 0 m²/s² 0 0 9.85 3
15:00 13 J/kg 9.0 K 0 % 0 % 0 % 0 m²/s² 0 0 10.02 3
16:00 21 J/kg 8.8 K 0 % 0 % 0 % 0 m²/s² 0 0 10.09 3
17:00 26 J/kg 8.5 K 0 % 0 % 0 % 0 m²/s² 0 0 10.03 3
18:00 27 J/kg 8.4 K 0 % 0 % 0 % 0 m²/s² 0 0 10.47 3
19:00 28 J/kg 8.0 K 0 % 0 % 0 % 0 m²/s² 0 0 10.43 2
20:00 29 J/kg 7.7 K 0 % 0 % 0 % 0 m²/s² 0 0 10.31 2
21:00 14 J/kg 7.9 K 0 % 0 % 0 % 0 m²/s² 0 0 10.6 2
22:00 0 J/kg 8.1 K 0 % 0 % 0 % 0 m²/s² 0 0 10.86 2
23:00 0 J/kg 8.3 K 0 % 0 % 0 % 0 m²/s² 0 0 11.12 2
 02:17     22:56    Daglengte: 20:39 Maandag 02 Aug
00:00 0 J/kg 8.2 K 0 % 0 % 0 % 0 m²/s² 0 0 10.93 2
01:00 0 J/kg 7.9 K 0 % 0 % 0 % 0 m²/s² 0 0 10.72 2
02:00 0 J/kg 7.5 K 0 % 0 % 0 % 0 m²/s² 0 0 10.23 1
03:00 0 J/kg 6.9 K 0 % 0 % 0 % 0 m²/s² 0 0 9.33 2
04:00 0 J/kg 6.7 K 0 % 0 % 0 % 0 m²/s² 0 0 8.86 2
05:00 0 J/kg 5.6 K 0 % 0 % 0 % 0 m²/s² 0 0 7.61 1
06:00 0 J/kg 4.4 K 0 % 0 % 0 % 0 m²/s² 0 0 6.17 1
07:00 4 J/kg 3.1 K 0 % 0 % 0 % 0 m²/s² 0 0 4.42 1
08:00 31 J/kg 2.3 K 0 % 0 % 0 % 0 m²/s² 0 0 3.62 2
09:00 42 J/kg 2.1 K 0 % 0 % 0 % 0 m²/s² 0 0 3.54 2
10:00 63 J/kg 1.9 K 0 % 0 % 0 % 0 m²/s² 0 0 2.95 2
11:00 64 J/kg 2.0 K 0 % 0 % 0 % 0 m²/s² 0 0 3.17 3
12:00 84 J/kg 1.7 K 0 % 0 % 0 % 0 m²/s² 0 0 2.87 80
13:00 61 J/kg 1.9 K 0 % 0 % 0 % 0 m²/s² 0 0 3.13 2
14:00 66 J/kg 1.4 K 0 % 0 % 0 % 0 m²/s² 0 0 2.42 2
15:00 53 J/kg 1.4 K 0 % 0 % 0 % 0 m²/s² 0 0 2.09 2
16:00 66 J/kg 1.6 K 0 % 0 % 0 % 0 m²/s² 0 0 2.83 2
17:00 33 J/kg 2.6 K 0 % 0 % 0 % 0 m²/s² 0 0 3.92 2
18:00 26 J/kg 3.3 K 0 % 0 % 0 % 0 m²/s² 0 0 4.86 2
19:00 30 J/kg 3.8 K 0 % 0 % 0 % 0 m²/s² 0 0 5.36 1
20:00 24 J/kg 4.4 K 0 % 0 % 0 % 0 m²/s² 0 0 5.84 1
21:00 15 J/kg 5.0 K 0 % 0 % 0 % 0 m²/s² 0 0 6.44 1
22:00 1 J/kg 5.8 K 0 % 0 % 0 % 0 m²/s² 0 0 7.24 1
23:00 0 J/kg 6.2 K 0 % 0 % 0 % 0 m²/s² 0 0 7.7 0
 02:24     22:48    Daglengte: 20:24 Dinsdag 03 Aug
00:00 0 J/kg 6.7 K 0 % 0 % 0 % 0 m²/s² 0 0 8.35 0
01:00 0 J/kg 7.1 K 0 % 0 % 0 % 0 m²/s² 0 0 9.05 0
02:00 0 J/kg 7.3 K 0 % 0 % 0 % 0 m²/s² 0 0 9.31 1
03:00 0 J/kg 7.7 K 0 % 0 % 0 % 0 m²/s² 0 0 9.92 1
04:00 0 J/kg 7.7 K 0 % 0 % 0 % 0 m²/s² 0 0 9.92 0
05:00 0 J/kg 7.8 K 0 % 0 % 0 % 0 m²/s² 0 0 9.96 0
06:00 0 J/kg 8.2 K 0 % 0 % 0 % 0 m²/s² 0 0 10.42 0
07:00 0 J/kg 8.5 K 0 % 0 % 0 % 0 m²/s² 0 0 10.87 0
08:00 0 J/kg 8.2 K 0 % 0 % 0 % 0 m²/s² 0 0 10.66 0
09:00 0 J/kg 7.8 K 0 % 0 % 0 % 0 m²/s² 0 0 10.32 0
10:00 0 J/kg 7.5 K 0 % 0 % 0 % 0 m²/s² 0 0 10.11 1
11:00 0 J/kg 7.1 K 0 % 0 % 0 % 0 m²/s² 0 0 9.71 1
12:00 0 J/kg 6.6 K 0 % 0 % 0 % 0 m²/s² 0 0 9.06 2
13:00 0 J/kg 6.6 K 0 % 0 % 0 % 0 m²/s² 0 0 9.06 3
14:00 2 J/kg 6.5 K 0 % 0 % 0 % 0 m²/s² 0 0 8.96 3
15:00 0 J/kg 6.9 K 0 % 0 % 0 % 0 m²/s² 0 0 9.36 3
16:00 1 J/kg 7.2 K 0 % 0 % 0 % 0 m²/s² 0 0 9.81 3
17:00 0 J/kg 7.7 K 0 % 0 % 0 % 0 m²/s² 0 0 10.4 3
18:00 0 J/kg 8.1 K 0 % 0 % 0 % 0 m²/s² 0 0 10.56 3
19:00 6 J/kg 7.9 K 0 % 0 % 0 % 0 m²/s² 0 0 10.51 3
20:00 15 J/kg 7.1 K 0 % 0 % 0 % 0 m²/s² 0 0 9.65 3
21:00 7 J/kg 6.9 K 0 % 0 % 0 % 0 m²/s² 0 0 9.6
22:00 2 J/kg 7.3 K 0 % 0 % 0 % 0 m²/s² 0 0 10
23:00 2 J/kg 7.8 K 0 % 0 % 0 % 0 m²/s² 0 0 10.68
Temp Baro Wind Neerslag
  EWN Forecast EWN WRFDA DWD ICON FMI HIRLAM MET Norway GFS
 02:10     23:04    Daglengte: 20:54 Morgen
02:00 7.4° 998.4 hPa 3.3 m/s 6.3 mm 6.6° 997.4 hPa 4.0 m/s 12.0 mm 7.2° 998.6 hPa 1.3 m/s 6.6 mm 7.4° 998.2 hPa 4.1 m/s 0.0 mm 7.1° 999.2 hPa 3.3 m/s
05:00 7.3° 998.1 hPa 2.9 m/s 2.0 mm 6.7° 997.1 hPa 2.6 m/s 12.5 mm 7.2° 998.3 hPa 1.6 m/s 1.0 mm 7.1° 998.0 hPa 3.0 m/s 0.0 mm 6.6° 999.3 hPa 2.9 m/s
08:00 7.8° 997.9 hPa 3.6 m/s 0.9 mm 7.4° 997.1 hPa 2.9 m/s 12.5 mm 7.9° 998.0 hPa 2.3 m/s 0.2 mm 7.4° 997.5 hPa 3.7 m/s 0.0 mm 7.0° 999.6 hPa 2.0 m/s
11:00 8.0° 998.0 hPa 3.7 m/s 1.1 mm 8.3° 997.4 hPa 2.7 m/s 12.9 mm 8.5° 998.0 hPa 3.2 m/s 0.2 mm 7.6° 997.9 hPa 3.7 m/s 0.0 mm 8.2° 999.5 hPa 1.8 m/s
14:00 8.6° 998.5 hPa 3.5 m/s 0.0 mm 9.3° 997.7 hPa 2.7 m/s 13.2 mm 9.6° 998.6 hPa 2.9 m/s 0.0 mm 7.9° 998.1 hPa 3.6 m/s 0.0 mm 9.5° 999.5 hPa 2.8 m/s
17:00 9.1° 998.5 hPa 2.9 m/s 0.0 mm 9.9° 997.8 hPa 2.2 m/s 13.6 mm 9.4° 998.5 hPa 2.4 m/s 0.1 mm 8.1° 998.4 hPa 3.6 m/s 0.0 mm 9.7° 999.7 hPa 3.1 m/s
20:00 9.1° 998.7 hPa 1.5 m/s 0.0 mm 9.3° 998.0 hPa 1.4 m/s 13.8 mm 9.1° 998.7 hPa 1.3 m/s 0.0 mm 8.1° 998.5 hPa 3.0 m/s 0.0 mm 9.5° 999.5 hPa 3.3 m/s
23:00 7.5° 999.0 hPa 2.0 m/s 0.0 mm 6.5° 998.1 hPa 3.7 m/s 13.9 mm 7.3° 999.1 hPa 0.5 m/s 0.0 mm 7.5° 998.7 hPa 1.8 m/s 0.0 mm 7.7° 999.7 hPa 2.2 m/s
 02:17     22:56    Daglengte: 20:39 Maandag 02 Aug
02:00 5.5° 999.1 hPa 2.0 m/s 0.0 mm 5.3° 998.0 hPa 3.2 m/s 13.9 mm 4.1° 999.4 hPa 1.5 m/s 0.0 mm 5.2° 998.6 hPa 1.7 m/s 0.0 mm 6.5° 999.6 hPa 0.3 m/s
05:00 5.7° 999.0 hPa 2.4 m/s 0.0 mm 6.9° 997.9 hPa 2.9 m/s 13.9 mm 5.2° 999.3 hPa 1.5 m/s 0.0 mm 5.0° 997.8 hPa 2.6 m/s 0.0 mm 7.5° 999.5 hPa 1.7 m/s
08:00 9.4° 998.8 hPa 1.5 m/s 0.0 mm 9.7° 998.0 hPa 2.8 m/s 13.9 mm 10.1° 999.2 hPa 1.3 m/s 0.0 mm 7.3° 996.8 hPa 2.7 m/s 0.0 mm 9.3° 999.6 hPa 2.2 m/s
11:00 11.2° 998.8 hPa 2.9 m/s 0.0 mm 11.0° 998.3 hPa 4.7 m/s 14.1 mm 13.0° 999.0 hPa 3.1 m/s 0.0 mm 11.0° 997.1 hPa 3.0 m/s 0.0 mm 11.3° 999.6 hPa 3.7 m/s
14:00 11.8° 999.9 hPa 3.6 m/s 0.0 mm 11.0° 1000.1 hPa 4.0 m/s 14.5 mm 13.3° 1000.2 hPa 1.7 m/s 0.4 mm 11.7° 998.1 hPa 3.7 m/s 0.0 mm 10.8° 1001.4 hPa 4.0 m/s
17:00 11.6° 1001.4 hPa 3.2 m/s 0.0 mm 10.7° 1001.7 hPa 5.9 m/s 16.3 mm 12.9° 1001.5 hPa 2.3 m/s 0.3 mm 10.3° 1003.3 hPa 3.5 m/s
20:00 11.1° 1002.7 hPa 1.6 m/s 0.0 mm 9.6° 1004.0 hPa 4.5 m/s 16.5 mm 11.3° 1002.7 hPa 1.3 m/s 0.0 mm 9.1° 1005.2 hPa 2.0 m/s
23:00 8.2° 1003.9 hPa 0.9 m/s 4.2 mm 7.2° 1004.8 hPa 0.4 m/s 16.5 mm 7.9° 1004.0 hPa 0.7 m/s 0.0 mm 7.6° 1005.9 hPa 0.6 m/s
 02:24     22:48    Daglengte: 20:24 Dinsdag 03 Aug
02:00 6.1° 1005.3 hPa 1.5 m/s 0.0 mm 5.7° 1005.6 hPa 2.4 m/s 16.5 mm 4.2° 1005.4 hPa 1.6 m/s 0.0 mm 7.4° 1006.9 hPa 1.4 m/s
05:00 6.6° 1006.1 hPa 2.4 m/s 0.0 mm 6.7° 1006.7 hPa 2.6 m/s 16.5 mm 5.3° 1006.2 hPa 1.3 m/s 0.0 mm 8.2° 1007.7 hPa 1.3 m/s
08:00 9.5° 1006.1 hPa 1.5 m/s 0.0 mm 9.1° 1006.0 hPa 1.6 m/s 16.5 mm 10.5° 1006.7 hPa 0.6 m/s 0.0 mm 9.6° 1007.1 hPa 1.6 m/s
11:00 11.6° 1006.0 hPa 0.5 m/s 0.0 mm 11.0° 1005.8 hPa 0.1 m/s 16.5 mm 12.2° 1007.1 hPa 2.1 m/s 0.0 mm 10.7° 1007.0 hPa 0.3 m/s
14:00 12.8° 1006.2 hPa 2.2 m/s 0.0 mm 12.1° 1006.1 hPa 2.8 m/s 16.5 mm 12.8° 1007.0 hPa 2.5 m/s 0.0 mm 11.7° 1007.3 hPa 1.5 m/s
17:00 12.2° 1007.1 hPa 3.2 m/s 0.0 mm 12.3° 1005.7 hPa 4.2 m/s 16.5 mm 12.2° 1007.4 hPa 2.9 m/s 0.0 mm 11.6° 1007.6 hPa 3.8 m/s
20:00 11.0° 1007.4 hPa 2.6 m/s 0.0 mm 11.9° 1006.1 hPa 4.4 m/s 16.5 mm 10.8° 1007.7 hPa 2.2 m/s 0.0 mm 10.4° 1008.6 hPa 4.7 m/s
23:00 9.8° 1006.7 hPa 4.4 m/s 16.5 mm 9.8° 1006.7 hPa 4.4 m/s 16.5 mm 8.6° 1009.3 hPa 3.5 m/s
 02:30     22:41    Daglengte: 20:11 Woensdag 04 Aug
02:00 8.4° 1006.8 hPa 4.9 m/s 16.8 mm 8.4° 1006.8 hPa 4.9 m/s 16.8 mm 8.2° 1009.3 hPa 1.6 m/s
05:00 8.4° 1008.7 hPa 1.6 m/s 9.9 mm 8.4° 1008.7 hPa 1.6 m/s 9.9 mm
08:00 8.7° 1008.9 hPa 3.7 m/s 10.1 mm 8.7° 1008.9 hPa 3.7 m/s 10.1 mm
11:00 9.8° 1008.5 hPa 3.8 m/s 10.2 mm 9.8° 1008.5 hPa 3.8 m/s 10.2 mm
14:00 9.9° 1009.0 hPa 3.2 m/s 10.2 mm 9.9° 1009.0 hPa 3.2 m/s 10.2 mm
17:00 8.5° 1008.8 hPa 1.1 m/s 10.8 mm 8.5° 1008.8 hPa 1.1 m/s 10.8 mm
20:00 8.4° 1008.8 hPa 0.3 m/s 12.7 mm 8.4° 1008.8 hPa 0.3 m/s 12.7 mm
23:00 8.4° 1009.3 hPa 1.8 m/s 14.0 mm 8.4° 1009.3 hPa 1.8 m/s 14.0 mm
 02:37     22:34    Daglengte: 19:57 Donderdag 05 Aug
02:00 9.0° 1008.9 hPa 3.3 m/s 14.5 mm 9.0° 1008.9 hPa 3.3 m/s 14.5 mm
05:00 8.9° 1009.4 hPa 3.1 m/s 15.4 mm 8.9° 1009.4 hPa 3.1 m/s 15.4 mm
08:00 9.1° 1010.3 hPa 3.8 m/s 16.6 mm 9.1° 1010.3 hPa 3.8 m/s 16.6 mm
11:00 9.4° 1011.1 hPa 3.2 m/s 17.5 mm 9.4° 1011.1 hPa 3.2 m/s 17.5 mm
14:00 9.8° 1012.3 hPa 3.1 m/s 17.9 mm 9.8° 1012.3 hPa 3.1 m/s 17.9 mm
17:00 11.0° 1012.8 hPa 2.0 m/s 17.9 mm 11.0° 1012.8 hPa 2.0 m/s 17.9 mm
20:00 10.8° 1014.0 hPa 1.9 m/s 17.9 mm 10.8° 1014.0 hPa 1.9 m/s 17.9 mm
23:00 9.0° 1015.6 hPa 1.4 m/s 17.9 mm 9.0° 1015.6 hPa 1.4 m/s 17.9 mm
 02:43     22:27    Daglengte: 19:44 Vrijdag 06 Aug
02:00 8.5° 1016.5 hPa 0.6 m/s 17.9 mm 8.5° 1016.5 hPa 0.6 m/s 17.9 mm
05:00 9.6° 1017.1 hPa 0.8 m/s 17.9 mm 9.6° 1017.1 hPa 0.8 m/s 17.9 mm
08:00 11.0° 1017.1 hPa 1.2 m/s 17.9 mm 11.0° 1017.1 hPa 1.2 m/s 17.9 mm
11:00 12.9° 1016.7 hPa 1.4 m/s 17.9 mm 12.9° 1016.7 hPa 1.4 m/s 17.9 mm
14:00 14.1° 1015.9 hPa 0.7 m/s 17.9 mm 14.1° 1015.9 hPa 0.7 m/s 17.9 mm
17:00 15.3° 1015.6 hPa 1.2 m/s 17.9 mm 15.3° 1015.6 hPa 1.2 m/s 17.9 mm
20:00 14.6° 1015.3 hPa 0.7 m/s 17.9 mm 14.6° 1015.3 hPa 0.7 m/s 17.9 mm
23:00 12.7° 1015.9 hPa 1.9 m/s 17.9 mm 12.7° 1015.9 hPa 1.9 m/s 17.9 mm
 02:49     22:21    Daglengte: 19:32 Zaterdag 07 Aug
02:00 11.2° 1016.5 hPa 3.7 m/s 18.2 mm 11.2° 1016.5 hPa 3.7 m/s 18.2 mm
05:00 11.3° 1016.8 hPa 3.6 m/s 18.4 mm 11.3° 1016.8 hPa 3.6 m/s 18.4 mm
08:00 13.8° 1016.8 hPa 2.4 m/s 18.4 mm 13.8° 1016.8 hPa 2.4 m/s 18.4 mm
11:00 15.9° 1016.6 hPa 1.7 m/s 18.4 mm 15.9° 1016.6 hPa 1.7 m/s 18.4 mm
14:00 16.7° 1016.9 hPa 1.9 m/s 18.4 mm 16.7° 1016.9 hPa 1.9 m/s 18.4 mm
17:00 16.3° 1017.6 hPa 0.7 m/s 18.5 mm 16.3° 1017.6 hPa 0.7 m/s 18.5 mm
20:00 15.9° 1018.5 hPa 1.4 m/s 18.5 mm 15.9° 1018.5 hPa 1.4 m/s 18.5 mm
23:00 14.5° 1020.0 hPa 4.4 m/s 18.5 mm 14.5° 1020.0 hPa 4.4 m/s 18.5 mm
 02:55     22:15    Daglengte: 19:20 Zondag 08 Aug
02:00 12.8° 1021.1 hPa 4.5 m/s 18.5 mm 12.8° 1021.1 hPa 4.5 m/s 18.5 mm
08:00 14.8° 1022.2 hPa 4.5 m/s 18.5 mm 14.8° 1022.2 hPa 4.5 m/s 18.5 mm
14:00 17.1° 1021.5 hPa 5.7 m/s 18.5 mm 17.1° 1021.5 hPa 5.7 m/s 18.5 mm
20:00 16.1° 1021.3 hPa 5.3 m/s 18.5 mm 16.1° 1021.3 hPa 5.3 m/s 18.5 mm
 03:00     22:08    Daglengte: 19:08 Maandag 09 Aug
02:00 12.2° 1021.2 hPa 2.3 m/s 18.5 mm 12.2° 1021.2 hPa 2.3 m/s 18.5 mm
08:00 14.2° 1019.5 hPa 4.8 m/s 18.5 mm 14.2° 1019.5 hPa 4.8 m/s 18.5 mm
14:00 13.2° 1018.6 hPa 5.9 m/s 18.9 mm 13.2° 1018.6 hPa 5.9 m/s 18.9 mm
20:00 12.3° 1017.6 hPa 4.2 m/s 23.2 mm 12.3° 1017.6 hPa 4.2 m/s 23.2 mm
 03:06     22:02    Daglengte: 18:56 Dinsdag 10 Aug
02:00 12.0° 1017.8 hPa 3.1 m/s 26.3 mm 12.0° 1017.8 hPa 3.1 m/s 26.3 mm
08:00 12.9° 1018.3 hPa 6.2 m/s 27.7 mm 12.9° 1018.3 hPa 6.2 m/s 27.7 mm
14:00 16.5° 1018.1 hPa 7.5 m/s 27.7 mm 16.5° 1018.1 hPa 7.5 m/s 27.7 mm
20:00 16.7° 1015.9 hPa 1.0 m/s 0.9 mm
 03:11     21:57    Daglengte: 18:46 Woensdag 11 Aug
02:00 12.4° 1016.5 hPa 1.0 m/s 0.3 mm
08:00 15.0° 1016.3 hPa 1.5 m/s 0.7 mm
14:00 18.1° 1016.1 hPa 2.1 m/s 0.3 mm
20:00 16.2° 1016.2 hPa 1.3 m/s 0.3 mm
 03:17     21:51    Daglengte: 18:34 Donderdag 12 Aug
02:00 11.8° 1016.6 hPa 1.6 m/s 0.0 mm
08:00 14.6° 1016.3 hPa 1.6 m/s 0.1 mm
14:00 17.5° 1016.2 hPa 1.2 m/s 0.7 mm
20:00 15.3° 1016.6 hPa 0.6 m/s 0.9 mm
 03:22     21:45    Daglengte: 18:23 Vrijdag 13 Aug
02:00 11.2° 1017.0 hPa 0.9 m/s 0.6 mm
08:00 13.9° 1017.0 hPa 1.2 m/s 0.7 mm
14:00 16.9° 1017.0 hPa 0.9 m/s 0.9 mm
20:00 14.6° 1016.7 hPa 0.8 m/s 0.3 mm
 03:27     21:39    Daglengte: 18:12 Zaterdag 14 Aug
02:00 10.8° 1016.2 hPa 1.5 m/s 0.4 mm
08:00 13.4° 1014.7 hPa 1.9 m/s 0.3 mm
14:00 16.5° 1013.5 hPa 1.7 m/s 0.9 mm
20:00 14.4° 1012.9 hPa 0.8 m/s 1.4 mm
 03:32     21:34    Daglengte: 18:02 Zondag 15 Aug
02:00 10.9° 1012.9 hPa 1.4 m/s 0.5 mm
08:00 12.9° 1012.3 hPa 1.4 m/s 0.4 mm
14:00 16.0° 1011.7 hPa 1.7 m/s 0.4 mm
20:00 14.1° 1011.1 hPa 1.4 m/s 0.5 mm
FMI Hirlam - 7.5 km EWN WRFDA - 12 km DWD ICON - 7 km GFS - 25 km Basiskaart






























































Updatetijd (Europe/Amsterdam) Resolutie Lengte Stap
FMI Hirlam 19:00, 01:00, 07:00, 13:00 7.5 km 49h 1h
EWN WRFDA 22:15, 04:15, 10:15, 16:15 12 km 73h 1h
DWD ICON 18:15, 00:15, 06:15, 12:15 7 km 75h 1h
GFS 20:15, 02:15, 08:15, 14:15 25 km 237h 3h
30+ mm
25-30 mm
20-25 mm
15-20 mm
10-15 mm
6-10 mm
4-6 mm
2-4 mm
1-2 mm
0.5-1 mm
0.2-0.5 mm
0.1-0.2 mm
30+ mm
25-30 mm
20-25 mm
15-20 mm
10-15 mm
6-10 mm
4-6 mm
2-4 mm
1-2 mm
0.5-1 mm
0.2-0.5 mm
0.1-0.2 mm
Sneeuwval
Natte sneeuw
Hagel
Vorst
30+ mm
25-30 mm
20-25 mm
15-20 mm
10-15 mm
6-10 mm
4-6 mm
2-4 mm
1-2 mm
0.5-1 mm
0.2-0.5 mm
0.1-0.2 mm
Sneeuwval
Natte sneeuw
Hagel
Vorst
Onweer
50 mm
40 mm
30 mm
26 mm
22 mm
18 mm
14 mm
10 mm
9 mm
8 mm
7 mm
6 mm
5 mm
4.5 mm
4 mm
3.5 mm
3 mm
2.5 mm
2 mm
1.5 mm
1 mm
0.8 mm
0.6 mm
0.4 mm
0.2 mm
0.05 mm
35°
30°
25°
20°
15°